www.pogodaiklimat.ru

Погода и климат >> Архив погоды >> Россия >> Чукотка >> Уэлен


ПОГОДА в Уэлене

АРХИВ ПОГОДЫ в Уэлене

Время (UTC), дата Ветер
(напр.,м/с)
 
Видим.   Явления Облачность Т
(С)
Тd
(С)
f
(%)
Тe
(С)
Тes
(С)
Комфортность P
(гПа)
Po
(гПа)
Тmin
(С)
Tmax
(С)
R
(мм)
R24
(мм)
S
(см)
21 18.06 СЗ 2
{5}
20 км 4/3 200 м
[St Ci fib]
+3.4 +1.6 88 0 +7 1007.8 1006.9
00 19.06 СЗ 4
{5}
20 км 4/3 200 м
[St Ci fib]
+3.6 +1.5 86 -1 +4 1007.9 1007.0
03 19.06 С 5
{6}
20 км 4/3 200 м
[St Ci fib]
+4.0 +2.0 87 -1 +2 1008.3 1007.4
06 19.06 С 1
{6}
20 км 4/3 300 м
[St Ci fib]
+3.4 +1.9 90 +2 +3 1009.3 1008.4 +4.0
09 19.06 С 5
{7}
50 км 3/3 600 м
[Sc Ci fib]
+2.6 +1.0 89 -3 -3 1010.3 1009.4
12 19.06 С 8
{10}
20 км 10/10 200 м
[St]
+1.9 +0.8 92 -5 -5 1010.9 1010.0
15 19.06 С 10-11
{13}
20 км 10/10 200 м
[St]
+1.4 +0.3 92 -6 -6 1011.2 1010.3
18 19.06 С 9-10
{13}
20 км 10/10 300 м
[St]
+1.5 +0.4 92 -6 -6 1012.3 1011.4 +1.4
21 19.06 С 9-10
{13}
20 км 10/10 300 м
[St]
+1.9 +0.6 91 -5 -5 1013.0 1012.1
00 20.06 С 6
{11}
50 км 10/10 300 м
[St]
+2.3 +0.1 85 -4 -4 1013.9 1013.0
03 20.06 С 5
{10}
50 км 10/10 300 м
[St]
+2.0 +0.1 87 -4 -4 1015.1 1014.2
06 20.06 С 5
{9}
50 км 10/10 300 м
[St]
+1.8 -0.4 85 -4 -4 1015.8 1014.9 +2.4
09 20.06 С 6
{9}
50 км 10/10 300 м
[St]
+1.4 +0.3 92 -5 -5 1016.4 1015.5
12 20.06 С 5
{7}
14 км в посл. час морось 10/10 300 м
[St]
+1.1 +0.3 94 -5 -5 1017.3 1016.4
15 20.06 С 3
{6}
12 км слабый ливневой дождь 10/10 200 м
[Cb cap]
+0.8 -0.0 94 -4 -4 1017.3 1016.4
18 20.06 С 4
{7}
18 км {ливн. осадки} 10/10 200 м
[St]
+1.0 +0.2 94 -4 -4 1017.9 1017.0 +0.7 0.7
21 20.06 С 5
{7}
18 км {туман} 9/9 100 м
[St]
+1.6 +0.5 92 -4 -4 1018.4 1017.5
00 21.06 С 4
{6}
4200 м дымка {туман} 9/9 100 м
[St]
+1.8 +1.3 96 -3 -3 1018.7 1017.8
03 21.06 С 5
{6}
4200 м дымка 8/8 100 м
[St]
+1.8 +1.3 96 -4 -3 1018.2 1017.3
06 21.06 С 4
{6}
3600 м дымка 10/10 100 м
[St]
+1.9 +1.6 98 -3 -3 1018.0 1017.1 +2.0
09 21.06 С 4
{6}
7000 м слабая морось 10/10 100 м
[St]
+1.4 +0.9 96 -4 -4 1017.7 1016.8
12 21.06 С 5
{7}
8000 м слабая морось 10/10 100 м
[St]
+1.0 +0.5 96 -5 -5 1017.0 1016.1
15 21.06 С 6
{8}
8000 м слабая морось 10/10 100 м
[St]
+1.0 +0.5 96 -6 -6 1015.8 1014.9
18 21.06 С 6
{8}
4800 м дымка {морось} 10/10 100 м
[St]
+1.2 +0.9 98 -5 -5 1015.2 1014.3 +0.8 0.0
21 21.06 СЗ 5
{10}
7000 м дымка 10/10 100 м
[St]
+1.8 +1.3 96 -4 -4 1014.2 1013.3
00 22.06 С 1
{7}
18 км 10/10 100 м
[St]
+2.1 +1.1 93 0 0 1013.1 1012.2
03 22.06 С 1
{5}
16 км 10/10 100 м
[St]
+2.5 +1.2 91 +1 +1 1011.8 1010.9
06 22.06 С 2
{7}
20 км {ливн. осадки} 9/9 300 м
[St]
+2.7 +1.4 91 -1 -0 1011.3 1010.4 +2.7 0.0
09 22.06 штиль 0
{7}
50 км 10/8 300 м
[St Ci fib]
+2.7 +1.4 91 +2 +2 1010.9 1010.0
12 22.06 С 6
{9}
18 км слабый ливневой дождь 9/9 300 м
[Cb cap]
+2.6 +1.0 89 -3 -3 1010.1 1009.2
15 22.06 СЗ 6
{10}
20 км {ливн. осадки} 10/10 300 м
[St]
+2.4 +0.8 89 -4 -4 1010.3 1009.4
18 22.06 СЗ 4
{10}
16 км слабый ливневой дождь 10/10 300 м
[Cb cap]
+2.4 +1.4 93 -3 -3 1011.0 1010.1 +2.1 1
21 22.06 СЗ 3
{7}
20 км в посл. час ливневой дождь 10/10 300 м
[Cu Sc]
+3.3 +2.3 93 -1 -1 1011.8 1010.9
00 23.06 штиль 0
{4}
20 км {ливн. осадки} 10/10 300 м
[St]
+4.6 +3.4 92 +3 +3 1012.7 1011.8
03 23.06 СВ 3
{4}
15 км 10/10 300 м
[St]
+3.6 +2.6 93 -0 -0 1012.9 1012.0
06 23.06 ЮЗ 6
{8}
20 км 8/6 300 м
[St Ci fib]
+5.8 +4.2 89 +1 +1 1013.0 1012.1 +5.8 0.0
09 23.06 ЮЗ 1
{9}
9000 м дымка 9/9 200 м
[St]
+4.8 +4.1 95 +3 +3 1014.0 1013.1
12 23.06 Ю 5
{6}
18 км 10/10 200 м
[St]
+4.6 +3.4 92 -0 -0 1015.0 1014.1
15 23.06 Ю 7
{9}
20 км 9/9 300 м
[St]
+4.3 +2.8 90 -2 -2 1015.9 1015.0
18 23.06 Ю 8
{10}
20 км 9/9 300 м
[St]
+4.6 +3.1 90 -2 -1 1016.5 1015.6 +3.5
21 23.06 Ю 8-10
{13}
20 км 9/9 600 м
[Sc]
+4.9 +3.0 87 -1 -1 1017.5 1016.6
00 24.06 Ю 8-10
{12}
20 км 8/8 600 м
[Sc]
+6.4 +3.8 83 +1 +2 1018.2 1017.3
03 24.06 Ю 9-11
{13}
20 км 8/8 600 м
[Sc]
+6.3 +4.0 85 +1 +1 1018.3 1017.4
06 24.06 Ю 6
{14}
50 км 9/9 600 м
[Sc]
+5.3 +3.4 88 0 0 1017.9 1017.0 +7.2
09 24.06 ЮЗ 2
{9}
50 км 9/9 600 м
[Sc]
+4.9 +3.5 91 +2 +2 1017.9 1017.0
12 24.06 ЮЗ 6
{10}
50 км 9/9 600 м
[Sc]
+4.1 +3.1 93 -2 -2 1017.7 1016.8
15 24.06 Ю 3
{8}
50 км 10/10 300 м
[St]
+3.8 +2.6 92 -0 -0 1017.4 1016.5
18 24.06 Ю 6
{9}
20 км 8/8 600 м
[Sc]
+5.1 +3.4 89 -0 0 1016.8 1015.9 +3.6
21 24.06 Ю 6
{8}
20 км 9/8 300 м
[St Ci fib]
+5.8 +4.2 89 +1 +2 1016.9 1016.0
00 25.06 Ю 8
{10}
20 км 9/9 300 м
[St]
+6.1 +4.0 86 +1 +1 1016.2 1015.3
03 25.06 Ю 10-11
{12}
20 км 5/5 300 м
[St]
+6.6 +4.8 88 +1 +1 1015.3 1014.4
06 25.06 Ю 9-10
{12}
20 км 4/4 300 м
[St]
+6.2 +4.3 88 0 +1 1014.7 1013.8 +6.6
09 25.06 Ю 7
{10}
20 км 3/3 300 м
[St]
+6.0 +3.9 86 +1 +1 1014.5 1013.6
12 25.06 ЮЗ 6
{8}
20 км 6/5 300 м
[St]
+4.0 +2.8 92 -2 -2 1013.8 1012.9
15 25.06 ЮЗ 6
{8}
20 км 9/9 300 м
[St]
+4.5 +3.5 93 -1 -1 1013.2 1012.3
18 25.06 Ю 4
{7}
50 км 9/9 600 м
[Sc]
+6.4 +4.1 85 +3 +3 1012.8 1011.9 +4.0

 

Местоположение метеостанции Уэлен (Чукотка, Россия): широта 66.16 долгота -169.00 высота над уровнем моря 7 м.

В архиве по умолчанию представлена погода в Уэлене за последнюю неделю. Архивные данные за месяц целиком и за предыдущие месяцы, начиная с января 2011 года, Вы можете получить, выбрав интересующий диапазон дат из раскрывающегося списка и нажав кнопку "Ввод!".


*Определитесь, кто Вы:
робот инопланетянин человек

Внимание! Время в таблицах - всемирное. Для получения местного времени необходимо прибавить поправку, которая в Уэлене равна 12 ч.

Смотрите также архив погоды в соседних городах и на ближайших метеорологических станциях:

Погода на Мысе Ванкарем (Чукотка, Россия) (320 км)
Погода в Эгвекиноте (Чукотка, Россия) (448 км)
Погода на Мысе Шмидта (Чукотка, Россия) (520 км)
Погода на Острове Врангеля (Чукотка, Россия) (648 км)

Пояснения к столбцам:

Ветер - указаны скорость ветра в м/с - средняя за 10 мин, порывы в срок и между сроками (в фигурных скобках) и направление, откуда дует ветер: С - северный, СВ - северо-восточный, В - восточный, ЮВ - юго-восточный, Ю - южный, ЮЗ - юго-западный, З - западный, СЗ - северо-западный.
Видимость - горизонтальная дальность видимости в метрах или километрах. При видимости от 1 до 10 км при отсутствии осадков обычно наблюдается дымка, при ухудшении видимости до 1 км и менее - туман. В сухую погоду видимость может ухудшаться дымом, пылью или мглою.
Явления - указаны атмосферные явления, наблюдавшиеся в срок или в последний час перед сроком; фигурными скобками обозначены явления, наблюдавшиеся между сроками (за 1-3 часа до срока); квадратными скобками обозначены град или гололедные отложения с указанием их диаметра в мм.
Облачность - указаны через наклонную черту общая и нижняя облачность в баллах и высота нижней границы облаков в метрах; квадратными скобками обозначены формы облаков: Ci - перистые, Cs - перисто-слоистые, Cc - перисто-кучевые, Ac - высококучевые, As - высокослоистые, Sc - слоисто-кучевые, Ns - слоисто-дождевые, Cu - кучевые, Cb - кучево-дождевые. Подробнее классификацию облаков см. в Атласе облаков (PDF).
T - Температура воздуха - температура, измеренная на высоте 2 м над землей.
Td - Температура точки росы - температура, при понижении до которой содержащийся в воздухе водяной пар достигнет насыщения.
f - Относительная влажность воздуха - влажноcть воздуха, измеренная на высоте 2 м над землей.
Te - Эффективная температура - температура, которую ощущает одетый по сезону человек в тени. Характеристика душности погоды. При расчете учитывается влияние влажности воздуха и скорости ветра на теплоощущения человека.
Tes - Эффективная температура на солнце - температура, которую ощущает человек, с поправкой на солнечный нагрев. Характеристика знойности погоды. Зависит от высоты солнца над горизонтом, облачности и скорости ветра. Ночью, в пасмурную погоду, а также при ветре 12 м/с и более поправка равна нулю.
P - Атмосферное давление - приведенное к уровню моря атмосферное давление.
Po - Атмосферное давление - измеренное на уровне метеостанции атмосферное давление.
Tmin - Минимальная температура - минимум температуры воздуха на высоте 2 м над землей.
Tmax - Максимальная температура - максимум температуры воздуха на высоте 2 м над землей.
R - Количество осадков - Количество выпавших осадков за период времени, мм. При наведении курсора мыши на число - период времени, за который выпало указанное количество осадков.
R24 - Количество осадков - Количество выпавших осадков за 24 часа, мм.
S - Снежный покров - Высота снежного покрова, см. При наведении курсора мыши на число - состояние снежного покрова и степень покрытия местности в баллах.